Dež Od: 21-01-2021 23:00 Do: 22-01-2021 22:59 Opozorilo za: Dež Stopnja: Rumena info button
Veter Od: 22-01-2021 17:00 Do: 23-01-2021 05:59 Opozorilo za: Veter Stopnja: Rumena info button
ďťż

Indeks požarne ogroženosti za amatersko vremensko postajo

(Podrobnosti so pod tabelo)
Legenda:
Majhna (0-210)
Zelo visoka (490 - 630)

Srednja (210 - 350)
Ekstremna (630+)

Visoka (350 - 490)


Flame  Flame
30.1
Datum Temp. (°C) Hitrost Vetra (km/h) Dež (mm) RH Dni od zadnjega dežja pwsFWI
Napovedi, vključno z današnjim dnem, so nad rdečo črto!
26/01/21 4.0 7.0 0.0 0.34 1 8.5
25/01/21 2.0 7.0 1.9 0.67 0 6.4
24/01/21 3.0 7.0 8.6 0.80 0 8.0
23/01/21 7.0 13.0 46.0 0.94 0 13.7
22/01/21 7.0 12.0 75.0 0.95 0 19.7
21/01/21 5.6 29.4 10.4 0.91 0 30.1
20/01/21 1.8 20.1 1.0 0.83 0 37.1
19/01/21 0.5 10.1 0.0 0.80 9 62.0
18/01/21 3.1 12.1 0.0 0.68 8 71.5
17/01/21 0.6 13.5 0.0 0.65 7 71.9
16/01/21 4.1 10.6 0.0 0.47 6 71.7
15/01/21 1.6 12.8 0.0 0.51 5 54.6
14/01/21 7.1 16.8 0.0 0.39 4 45.0
13/01/21 6.0 13.2 0.0 0.47 3 27.0
12/01/21 3.5 9.5 0.0 0.51 2 12.9
11/01/21 -1.1 19.3 0.0 0.68 1 11.5
10/01/21 -2.2 18.8 5.7 0.71 0 5.5
09/01/21 -0.1 19.6 3.1 0.69 0 10.3
08/01/21 1.3 10.8 0.0 0.75 1 4.6
07/01/21 3.6 5.9 2.1 0.87 0 3.6
06/01/21 1.9 11.6 2.1 0.88 0 1.0
05/01/21 4.5 10.7 2.1 0.84 0 7.7
04/01/21 2.6 14.4 0.0 0.86 1 4.0
03/01/21 6.9 10.4 8.3 0.84 0 7.3
02/01/21 2.7 17.5 59.6 0.87 0 1.1
01/01/21 3.9 13.9 12.4 0.80 0 8.9
31/12/20 4.8 12.9 0.0 0.72 1 24.8
30/12/20 6.3 9.7 7.8 0.86 0 8.2
29/12/20 9.9 23.2 17.1 0.86 0 20.3
28/12/20 4.6 40.8 30.6 0.79 0 22.5

CumulusUtils Version 4.8.3 - generated at 22/01/2021 01:00 - © Hans Rottier
Science background here. Prediction: https://www.yourweather.co.uk/
sucontract_SNC